When you browse on this site, cookies collect data to enhance your experience and personalize the content and advertising you see.
Visit our Privacy Policy to learn more. By continuing to use the site, you agree to this use of cookies and data.
  • En España
  • Lista de países
  • Para 7 días
  • Temperatura del agua
  • Mapa Satelital
  • El tiempo en el mapa
  • Informadores
  • user-avatar
    Iniciar sesión

    Tiempo cada hora Bashino

    Hoy, 25 Junio, Martes

    Tiempo Temperatura Precipitaciones Viento Presión Humedad
    00:00 +15°C° 0 mm 2 mps 748 mmHg 71%
    01:00 +14°C° 0 mm 2 mps 749 mmHg 73%
    02:00 +14°C° 0 mm 2 mps 749 mmHg 74%
    03:00 +12°C° 0 mm 3 mps 749 mmHg 76%
    04:00 +14°C° 0 mm 2 mps 750 mmHg 76%
    05:00 +14°C° 0 mm 2 mps 750 mmHg 77%
    06:00 +15°C° 0 mm 1 mps 750 mmHg 77%
    07:00 +16°C° 0 mm 2 mps 750 mmHg 72%
    08:00 +18°C° 0 mm 2 mps 751 mmHg 68%
    09:00 +19°C° 0 mm 3 mps 751 mmHg 63%
    10:00 +20°C° 0 mm 3 mps 751 mmHg 59%
    11:00 +21°C° 0 mm 4 mps 751 mmHg 55%
    12:00 +21°C° 0 mm 4 mps 751 mmHg 50%
    13:00 +22°C° 0 mm 4 mps 751 mmHg 50%
    14:00 +22°C° 0 mm 4 mps 751 mmHg 49%
    15:00 +22°C° 0 mm 4 mps 751 mmHg 49%
    16:00 +21°C° 0 mm 3 mps 751 mmHg 54%
    17:00 +21°C° 0 mm 3 mps 751 mmHg 59%
    18:00 +21°C° 0 mm 2 mps 750 mmHg 65%
    19:00 +19°C° 0 mm 2 mps 751 mmHg 68%
    20:00 +18°C° 0 mm 1 mps 751 mmHg 70%
    21:00 +15°C° 0 mm 1 mps 751 mmHg 73%
    22:00 +15°C° 0 mm 1 mps 751 mmHg 74%
    23:00 +14°C° 0 mm 1 mps 750 mmHg 74%

    Mañana, 26 Junio, Miércoles

    Tiempo Temperatura Precipitaciones Viento Presión Humedad
    00:00 +13°C° 0 mm 1 mps 750 mmHg 74%
    01:00 +13°C° 0 mm 1 mps 750 mmHg 76%
    02:00 +12°C° 0 mm 1 mps 750 mmHg 77%
    03:00 +12°C° 0 mm 1 mps 751 mmHg 79%
    04:00 +13°C° 0 mm 1 mps 750 mmHg 79%
    05:00 +14°C° 0 mm 1 mps 750 mmHg 80%
    06:00 +14°C° 0 mm 1 mps 750 mmHg 80%
    07:00 +16°C° 0 mm 2 mps 750 mmHg 75%
    08:00 +18°C° 0 mm 2 mps 750 mmHg 70%
    09:00 +19°C° 0 mm 2 mps 749 mmHg 64%
    10:00 +20°C° 0 mm 2 mps 749 mmHg 61%
    11:00 +21°C° 0 mm 3 mps 749 mmHg 58%
    12:00 +22°C° 0 mm 3 mps 748 mmHg 55%
    13:00 +22°C° 0.2 mm 3 mps 748 mmHg 60%
    14:00 +21°C° 0.2 mm 2 mps 747 mmHg 65%
    15:00 +21°C° 0.2 mm 1 mps 747 mmHg 71%
    16:00 +21°C° 0.2 mm 1 mps 746 mmHg 73%
    17:00 +21°C° 0.2 mm 1 mps 746 mmHg 75%
    18:00 +20°C° 0.2 mm 2 mps 745 mmHg 77%
    19:00 +18°C° 0.2 mm 2 mps 745 mmHg 83%
    20:00 +17°C° 0.2 mm 2 mps 744 mmHg 88%
    21:00 +14°C° 0.2 mm 3 mps 744 mmHg 93%
    22:00 +15°C° 0 mm 2 mps 743 mmHg 94%
    23:00 +15°C° 0 mm 2 mps 743 mmHg 94%

    Pasado mañana, 27 Junio, Jueves

    Tiempo Temperatura Precipitaciones Viento Presión Humedad
    00:00 +15°C° 0 mm 2 mps 742 mmHg 94%
    01:00 +14°C° 0 mm 2 mps 741 mmHg 94%
    02:00 +14°C° 0 mm 2 mps 741 mmHg 94%
    03:00 +14°C° 0 mm 2 mps 740 mmHg 94%
    04:00 +13°C° 1.1 mm 3 mps 739 mmHg 95%
    05:00 +14°C° 1.1 mm 3 mps 738 mmHg 96%
    06:00 +14°C° 1.1 mm 4 mps 737 mmHg 97%
    07:00 +15°C° 3 mm 4 mps 736 mmHg 97%
    08:00 +15°C° 3 mm 4 mps 736 mmHg 96%
    09:00 +15°C° 3 mm 4 mps 735 mmHg 96%
    10:00 +16°C° 0.9 mm 5 mps 734 mmHg 95%
    11:00 +17°C° 0.9 mm 5 mps 733 mmHg 95%
    12:00 +19°C° 0.9 mm 5 mps 732 mmHg 95%
    13:00 +19°C° 0.7 mm 6 mps 731 mmHg 94%
    14:00 +20°C° 0.7 mm 6 mps 731 mmHg 92%
    15:00 +20°C° 0.7 mm 6 mps 730 mmHg 91%
    16:00 +20°C° 0.4 mm 6 mps 729 mmHg 91%
    17:00 +21°C° 0.4 mm 6 mps 728 mmHg 92%
    18:00 +21°C° 0.4 mm 6 mps 728 mmHg 92%
    19:00 +20°C° 0.1 mm 6 mps 727 mmHg 92%
    20:00 +19°C° 0.1 mm 5 mps 727 mmHg 93%
    21:00 +19°C° 0.1 mm 5 mps 727 mmHg 93%
    22:00 +16°C° 0 mm 5 mps 727 mmHg 94%
    23:00 +15°C° 0 mm 5 mps 727 mmHg 94%

    28 Junio, Viernes

    Tiempo Temperatura Precipitaciones Viento Presión Humedad
    00:00 +14°C° 0 mm 5 mps 727 mmHg 94%
    01:00 +13°C° 0 mm 5 mps 727 mmHg 94%
    02:00 +13°C° 0 mm 5 mps 727 mmHg 94%
    03:00 +12°C° 0 mm 5 mps 727 mmHg 94%
    04:00 +12°C° 0 mm 5 mps 727 mmHg 93%
    05:00 +12°C° 0 mm 5 mps 726 mmHg 92%
    06:00 +11°C° 0 mm 6 mps 726 mmHg 91%
    07:00 +11°C° 0.1 mm 6 mps 726 mmHg 91%
    08:00 +11°C° 0.1 mm 6 mps 726 mmHg 91%
    09:00 +11°C° 0.1 mm 6 mps 725 mmHg 90%
    10:00 +11°C° 0.1 mm 6 mps 725 mmHg 90%
    11:00 +12°C° 0.1 mm 7 mps 725 mmHg 89%
    12:00 +12°C° 0.1 mm 7 mps 725 mmHg 88%
    13:00 +12°C° 0.3 mm 7 mps 725 mmHg 89%
    14:00 +11°C° 0.3 mm 7 mps 725 mmHg 91%
    15:00 +11°C° 0.3 mm 7 mps 725 mmHg 93%
    16:00 +11°C° 0.2 mm 6 mps 725 mmHg 93%
    17:00 +11°C° 0.2 mm 6 mps 725 mmHg 94%
    18:00 +10°C° 0.2 mm 6 mps 726 mmHg 94%
    19:00 +10°C° 0.3 mm 6 mps 726 mmHg 94%
    20:00 +10°C° 0.3 mm 6 mps 726 mmHg 94%
    21:00 +9°C° 0.3 mm 6 mps 726 mmHg 93%
    22:00 +10°C° 0.3 mm 6 mps 726 mmHg 94%
    23:00 +10°C° 0.3 mm 6 mps 727 mmHg 94%

    29 Junio, Sábado

    Tiempo Temperatura Precipitaciones Viento Presión Humedad
    00:00 +10°C° 0.3 mm 6 mps 727 mmHg 95%
    01:00 +9°C° 0 mm 6 mps 727 mmHg 94%
    02:00 +9°C° 0 mm 6 mps 727 mmHg 93%
    03:00 +8°C° 0 mm 6 mps 727 mmHg 92%
    04:00 +8°C° 0 mm 6 mps 727 mmHg 91%
    05:00 +8°C° 0 mm 6 mps 727 mmHg 90%
    06:00 +8°C° 0 mm 7 mps 727 mmHg 89%
    07:00 +8°C° 0 mm 7 mps 728 mmHg 85%
    08:00 +9°C° 0 mm 7 mps 728 mmHg 81%
    09:00 +9°C° 0 mm 7 mps 729 mmHg 78%
    10:00 +9°C° 0 mm 7 mps 729 mmHg 79%
    11:00 +9°C° 0 mm 6 mps 730 mmHg 81%
    12:00 +9°C° 0 mm 6 mps 730 mmHg 83%
    13:00 +8°C° 0.1 mm 6 mps 731 mmHg 85%
    14:00 +8°C° 0.1 mm 6 mps 731 mmHg 87%
    15:00 +7°C° 0.1 mm 6 mps 732 mmHg 89%
    16:00 +7°C° 0.4 mm 6 mps 732 mmHg 90%
    17:00 +7°C° 0.4 mm 5 mps 732 mmHg 92%
    18:00 +6°C° 0.4 mm 5 mps 732 mmHg 94%
    19:00 +6°C° 0.5 mm 5 mps 733 mmHg 95%
    20:00 +6°C° 0.5 mm 5 mps 733 mmHg 95%
    21:00 +6°C° 0.5 mm 4 mps 733 mmHg 96%
    22:00 +6°C° 0.7 mm 5 mps 733 mmHg 96%
    23:00 +7°C° 0.7 mm 5 mps 733 mmHg 95%

    30 Junio, Domingo

    Tiempo Temperatura Precipitaciones Viento Presión Humedad
    00:00 +7°C° 0.7 mm 6 mps 733 mmHg 95%
    01:00 +7°C° 0.2 mm 5 mps 733 mmHg 95%
    02:00 +6°C° 0.2 mm 4 mps 733 mmHg 95%
    03:00 +6°C° 0.2 mm 4 mps 734 mmHg 95%
    04:00 +7°C° 0 mm 4 mps 734 mmHg 94%
    05:00 +7°C° 0 mm 4 mps 734 mmHg 93%
    06:00 +7°C° 0 mm 4 mps 734 mmHg 92%
    07:00 +8°C° 0 mm 4 mps 735 mmHg 86%
    08:00 +9°C° 0 mm 5 mps 735 mmHg 81%
    09:00 +10°C° 0 mm 5 mps 736 mmHg 76%
    10:00 +13°C° 0 mm 5 mps 736 mmHg 69%
    11:00 +14°C° 0 mm 5 mps 736 mmHg 63%
    12:00 +15°C° 0 mm 5 mps 737 mmHg 56%
    13:00 +15°C° 0.1 mm 5 mps 737 mmHg 58%
    14:00 +16°C° 0.1 mm 5 mps 737 mmHg 60%
    15:00 +17°C° 0.1 mm 4 mps 738 mmHg 61%
    16:00 +17°C° 0.1 mm 4 mps 738 mmHg 63%
    17:00 +17°C° 0.1 mm 3 mps 738 mmHg 66%
    18:00 +16°C° 0.1 mm 3 mps 738 mmHg 68%
    19:00 +15°C° 0 mm 2 mps 739 mmHg 70%
    20:00 +14°C° 0 mm 2 mps 739 mmHg 72%
    21:00 +12°C° 0 mm 2 mps 739 mmHg 75%
    22:00 +10°C° 0 mm 2 mps 739 mmHg 78%
    23:00 +10°C° 0 mm 2 mps 739 mmHg 81%
    Mostrar más